Chatham, MA

11:43 PM EDT on May 24, 2017 (GMT -0400)
Chatham Municipal

Weather History for KCQX - October, 2013

Change the Weather History Date:

Monday, October 14, 2013

  Actual Average Record
Temperature  
Mean Temperature 49 °F -  
Max Temperature 60 °F 58 °F 75 °F (1990)
Min Temperature 39 °F 44 °F 36 °F (1988)
Degree Days  
Heating Degree Days 16    
Moisture  
Dew Point 43 °F    
Average Humidity 80    
Maximum Humidity 96    
Minimum Humidity 58    
Precipitation  
Precipitation 0.00 in - - ()
Sea Level Pressure  
Sea Level Pressure 30.35 in    
Wind  
Wind Speed 1 mph (ENE)    
Max Wind Speed 8 mph    
Max Gust Speed -    
Visibility 10 miles    
Events      
Averages and records for this station are not official NWS values.
T = Trace of Precipitation, MM = Missing Value Source: NWS Daily Summary

Daily Weather History Graph

Daily Weather History Graph

Search for Another Location

Airport or City:

Trip Planner

Search our weather history database for the weather conditions in past years. The results will help you decide how hot, cold, wet, or windy it might be!

Date:

Astronomy

Oct. 14, 2013 Rise Set
Actual Time 6:51 AM EDT 5:59 PM EDT
Civil Twilight 6:23 AM EDT 6:27 PM EDT
Nautical Twilight 5:51 AM EDT 7:00 PM EDT
Astronomical Twilight 5:18 AM EDT 7:32 PM EDT
Moon 3:30 PM EDT (10/14) 2:00 AM EDT (10/14)
Length of Visible Light 12h 04m
Length of Day
11h 08m
Waxing Gibbous, 79% of the Moon is Illuminated
Oct 14
Waxing Gibbous
Oct 18
Full
Oct 26
Last Quarter
Nov 3
New
Nov 10
First Quarter

Hourly Weather History & Observations

Time (EDT) Temp. Windchill Dew Point Humidity Pressure Visibility Wind Dir Wind Speed Gust Speed Precip Events Conditions
12:52 AM 41.0 °F - 39.0 °F 93% 30.41 in 10.0 mi Calm Calm - N/A   Clear
1:29 AM 42.8 °F - 39.2 °F 87% 30.40 in 10.0 mi Calm Calm - N/A   Mostly Cloudy
1:42 AM 42.8 °F - 39.2 °F 87% 30.40 in 10.0 mi Calm Calm - N/A   Scattered Clouds
1:52 AM 42.1 °F 40.2 °F 39.0 °F 89% 30.40 in 10.0 mi NNW 3.5 mph - N/A   Partly Cloudy
2:52 AM 41.0 °F - 39.0 °F 93% 30.38 in 10.0 mi Calm Calm - N/A   Clear
3:42 AM 42.8 °F 41.1 °F 39.2 °F 87% 30.37 in 10.0 mi NNW 3.5 mph - N/A   Mostly Cloudy
3:52 AM 41.0 °F - 39.0 °F 93% 30.38 in 10.0 mi Calm Calm - N/A   Scattered Clouds
4:52 AM 41.0 °F - 39.0 °F 93% 30.37 in 10.0 mi Calm Calm - N/A   Clear
5:52 AM 41.0 °F - 37.9 °F 89% 30.37 in 10.0 mi Calm Calm - N/A   Clear
6:52 AM 39.0 °F - 37.9 °F 96% 30.38 in 10.0 mi Calm Calm - N/A   Clear
7:52 AM 46.0 °F - 43.0 °F 89% 30.38 in 10.0 mi Calm Calm - N/A   Clear
8:52 AM 55.0 °F - 48.0 °F 77% 30.39 in 10.0 mi Calm Calm - N/A   Clear
9:52 AM 57.0 °F - 45.0 °F 64% 30.38 in 10.0 mi East 5.8 mph - N/A   Clear
10:52 AM 57.0 °F - 44.1 °F 62% 30.36 in 10.0 mi East 8.1 mph - N/A   Clear
11:52 AM 59.0 °F - 44.1 °F 58% 30.36 in 10.0 mi Variable 3.5 mph - N/A   Clear
12:52 PM 59.0 °F - 44.1 °F 58% 30.33 in 10.0 mi ENE 4.6 mph - N/A   Clear
1:52 PM 59.0 °F - 44.1 °F 58% 30.32 in 10.0 mi East 6.9 mph - N/A   Clear
2:52 PM 59.0 °F - 44.1 °F 58% 30.31 in 10.0 mi East 6.9 mph - N/A   Clear
3:52 PM 57.0 °F - 45.0 °F 64% 30.30 in 10.0 mi Calm Calm - N/A   Clear
4:52 PM 55.9 °F - 45.0 °F 67% 30.29 in 10.0 mi Calm Calm - N/A   Clear
5:52 PM 53.1 °F - 46.0 °F 77% 30.30 in 10.0 mi Calm Calm - N/A   Clear
6:52 PM 50.0 °F - 46.0 °F 86% 30.31 in 10.0 mi Calm Calm - N/A   Clear
7:52 PM 48.9 °F - 45.0 °F 86% 30.30 in 10.0 mi Calm Calm - N/A   Clear
8:52 PM 48.9 °F - 46.0 °F 90% 30.30 in 10.0 mi Calm Calm - N/A   Clear
9:52 PM 48.9 °F - 46.0 °F 90% 30.30 in 10.0 mi Calm Calm - N/A   Clear
10:52 PM 48.9 °F - 45.0 °F 86% 30.30 in 10.0 mi Calm Calm - N/A   Clear
11:52 PM 48.0 °F - 45.0 °F 89% 30.29 in 10.0 mi Calm Calm - N/A   Clear